sat.trackr.live / text

‹ back to catalog

ONEWEB-0706

NORAD 61611 · 2024-188T

PAYLOAD ACTIVE UNKNOWN

§ Identity

Operator
Country
UK
Launch date
2024-10-20
Launch site
AFWTR
Launch vehicle
Mass (kg)
RCS (m²)

Purposes: comms

External: N2YO · Heavens-Above · Gunter

§ Orbital elements

Epoch: 2026-05-25T03:39:13.280256Z

Period
109.89 min
Inclination
87.8858°
Eccentricity
0.0001446
Mean motion
13.10375480 rev/d
Perigee alt
1,220.6 km
Apogee alt
1,222.8 km
Semi-major
7,599.8 km
B*
1.5670e-3
RAAN
40.8505°
Arg perigee
96.8126°
Mean anomaly
263.3166°
Rev number
8,036

§ Raw data

ONEWEB-07061 61611U 24188T   26145.15223704  .00000560  00000+0  15670-2 0  99912 61611  87.8858  40.8505 0001446  96.8126 263.3166 13.10375480 80366

JSON: /api/v1/satellites/61611 · /tle

For live sub-satellite position, see the globe view (requires WebGL).

§ Visibility from observer

Set your observer location to see the next 7 days of passes ≥ 10°. The values pass through the URL so the page stays shareable.

No JS? Fill the form by hand. The geolocation button needs JavaScript.